sat.trackr.live / text

‹ back to catalog

STARLINK-4701

NORAD 53727 · 2022-107AD

PAYLOAD ACTIVE UNKNOWN

§ Identity

Operator
Country
US
Launch date
2022-09-05
Launch site
AFETR
Launch vehicle
Mass (kg)
RCS (m²)

Purposes: comms

External: N2YO · Heavens-Above · Gunter

§ Orbital elements

Epoch: 2026-09-20T21:05:16.474560Z

Period
93.85 min
Inclination
53.1601°
Eccentricity
0.0001180
Mean motion
15.34388345 rev/d
Perigee alt
461.9 km
Apogee alt
463.5 km
Semi-major
6,840.9 km
B*
4.5121e-5
RAAN
83.6695°
Arg perigee
94.2600°
Mean anomaly
265.8538°
Rev number
22,421

§ Raw data

STARLINK-47011 53727U 22107AD  26263.87866290  .00001148  00000+0  45121-4 0  99912 53727  53.1601  83.6695 0001180  94.2600 265.8538 15.34388345224212

JSON: /api/v1/satellites/53727 · /tle

For live sub-satellite position, see the globe view (requires WebGL).

§ Visibility from observer

Set your observer location to see the next 7 days of passes ≥ 10°. The values pass through the URL so the page stays shareable.

No JS? Fill the form by hand. The geolocation button needs JavaScript.